Location: Warszawa
(52.2500°N, 21.0000°E)
Time: 21:09:18
(UTC+02:00)

A-11 Canister half - Pass Details

Date: 14 February 2023
Orbit: 1526 x 1682 km, 47.3° (Epoch: 27 March)

Event Time Altitude Azimuth Distance (km) Brightness Sun altitude
Exits shadow 04:07:01 38° 224° (SW) 2,169 9.3 -26.0°
Maximum altitude 04:10:38 59° 165° (SSE) 1,722 9.2 -25.5°
Drops below altitude 10° 04:19:43 10° 89° (E) 3,716 12.1 -24.1°
Sets 04:22:50 0° 86° (E) 4,713 13.0 -23.7°
